Погода в Осаке

Япония     34°40′38″N   135°30′02″E
темп.,
°C
ветер,
м/с
пор.,
м/с
влажн.,
%
обл.,
%
осадки,
мм/ч
давл.,
гПа
погр.,
м
28 февраля, вс
вс2800:00+5св3554100 0.0 1032250
03:00+5св3653100 0.0 1031281
06:00+5св3658100 0.0 1033279
09:00+7всв3555100 0.0 1032382
12:00+13вюв2346100 0.0 10311085
15:00+14всв234197 0.0 10291474
18:00+13всв235199 0.0 1030318
21:00+11в366675 0.0 1031335
1 марта, пн
пн100:00+9св23790 0.0 1029189
03:00+9св35862 0.0 1027199
06:00+8св35832 0.0 1027154
09:00+11св35681 0.0 1026306
12:00+17всв235138 0.0 1024740
15:00+18св124768 0.0 10201171
18:00+17юв125096 0.0 101973
21:00+15св126397 0.0 101888
2 марта, вт
вт200:00+14в2274100 0.0 101440
03:00+13вюв117797 0.1 101024
06:00+13в228494 0.9 100770
09:00+14сз199697 5.0 1009350
12:00+7ссз81475100 14.1 1011889
15:00+6ссз51174100 19.9 10141140
18:00+5ссз6127591 0.1 10161287
21:00+5ссз7156987 0.3 10191343
3 марта, ср
ср300:00+3с714674 0.0 10221405
03:00+3с8145928 0.0 10251345
06:00+3с6125937 0.0 10271303
09:00+4с585123 0.0 10291259
12:00+7с574321 0.0 10291069
15:00+9с453810 0.0 1028986
18:00+8с344218 0.0 1029552
21:00+6ссв354733 0.0 1031290
4 марта, чт
чт400:00+6всв244795 0.0 1031226
03:00+6св125190 0.0 103085
06:00+5св245733 0.0 1031146
09:00+9св236530 0.0 1031288
12:00+14вюв025053 0.0 1029594
15:00+15ююз124660 0.0 10271182
18:00+14всв235698 0.0 1027365
21:00+12всв346598 0.0 1027310